Time,TemperatureF,DewpointF,PressureIn,WindDirection,WindDirectionDegrees,WindSpeedMPH,WindSpeedGustMPH,Humidity,HourlyPrecipIn,Conditions,Clouds,dailyrainin,SolarRadiationWatts/m^2,SoftwareType,DateUTC
2017-06-23 00:04:00,47.2,36.4,30.23,North,355,0.0,0.0,66,0.00,,,0.00,0,Wunderground v.1.15,2017-06-23 06:04:00,
2017-06-23 00:09:00,47.1,36.7,30.23,North,355,0.0,0.0,67,0.00,,,0.00,0,Wunderground v.1.15,2017-06-23 06:09:00,
2017-06-23 00:14:00,47.1,36.7,30.23,North,355,0.0,0.0,67,0.00,,,0.00,0,Wunderground v.1.15,2017-06-23 06:14:00,
2017-06-23 00:19:00,46.9,36.5,30.23,North,355,0.0,0.0,67,0.00,,,0.00,0,Wunderground v.1.15,2017-06-23 06:19:00,
2017-06-23 00:25:00,46.6,36.2,30.23,North,355,0.0,0.0,67,0.00,,,0.00,0,Wunderground v.1.15,2017-06-23 06:25:00,
2017-06-23 00:30:00,46.0,36.0,30.23,North,355,0.0,0.0,68,0.00,,,0.00,0,Wunderground v.1.15,2017-06-23 06:30:00,
2017-06-23 00:36:00,45.7,35.7,30.23,North,355,0.0,0.0,68,0.00,,,0.00,0,Wunderground v.1.15,2017-06-23 06:36:00,
2017-06-23 00:41:00,45.5,35.9,30.23,North,355,0.0,0.0,69,0.00,,,0.00,0,Wunderground v.1.15,2017-06-23 06:41:00,
2017-06-23 00:47:00,45.3,35.7,30.24,North,355,0.0,0.0,69,0.00,,,0.00,0,Wunderground v.1.15,2017-06-23 06:47:00,
2017-06-23 00:52:00,45.3,36.1,30.24,North,355,0.0,0.0,70,0.00,,,0.00,0,Wunderground v.1.15,2017-06-23 06:52:00,
2017-06-23 00:58:00,45.0,36.5,30.24,North,355,0.0,0.0,72,0.00,,,0.00,0,Wunderground v.1.15,2017-06-23 06:58:00,
2017-06-23 01:03:00,44.6,36.1,30.24,North,355,0.0,0.0,72,0.00,,,0.00,0,Wunderground v.1.15,2017-06-23 07:03:00,
2017-06-23 01:09:00,44.4,36.3,30.24,North,355,0.0,0.0,73,0.00,,,0.00,0,Wunderground v.1.15,2017-06-23 07:09:00,
2017-06-23 01:15:00,44.0,36.2,30.24,North,355,0.0,0.0,74,0.00,,,0.00,0,Wunderground v.1.15,2017-06-23 07:15:00,
2017-06-23 01:20:00,43.7,36.0,30.24,North,355,0.0,0.0,74,0.00,,,0.00,0,Wunderground v.1.15,2017-06-23 07:20:00,
2017-06-23 01:25:00,43.4,36.3,30.24,North,355,0.0,0.0,76,0.00,,,0.00,0,Wunderground v.1.15,2017-06-23 07:25:00,
2017-06-23 01:31:00,43.1,36.0,30.23,North,355,0.0,0.0,76,0.00,,,0.00,0,Wunderground v.1.15,2017-06-23 07:31:00,
2017-06-23 01:37:00,42.9,36.2,30.23,North,355,0.0,0.0,77,0.00,,,0.00,0,Wunderground v.1.15,2017-06-23 07:37:00,
2017-06-23 01:42:00,42.7,36.0,30.23,North,355,0.0,0.0,77,0.00,,,0.00,0,Wunderground v.1.15,2017-06-23 07:42:00,
2017-06-23 01:47:00,42.5,35.8,30.24,North,355,0.0,0.0,77,0.00,,,0.00,0,Wunderground v.1.15,2017-06-23 07:47:00,
2017-06-23 01:52:00,42.4,36.0,30.24,North,355,0.0,0.0,78,0.00,,,0.00,0,Wunderground v.1.15,2017-06-23 07:52:00,
2017-06-23 01:58:00,41.6,34.9,30.24,North,355,0.0,0.0,77,0.00,,,0.00,0,Wunderground v.1.15,2017-06-23 07:58:00,
2017-06-23 02:03:00,41.4,35.1,30.24,North,355,0.0,0.0,78,0.00,,,0.00,0,Wunderground v.1.15,2017-06-23 08:03:00,
2017-06-23 02:08:00,41.2,35.2,30.24,North,355,0.0,0.0,79,0.00,,,0.00,0,Wunderground v.1.15,2017-06-23 08:08:00,
2017-06-23 02:13:00,41.1,35.4,30.24,North,355,0.0,0.0,80,0.00,,,0.00,0,Wunderground v.1.15,2017-06-23 08:13:00,
2017-06-23 02:18:00,41.0,35.3,30.24,North,355,0.0,0.0,80,0.00,,,0.00,0,Wunderground v.1.15,2017-06-23 08:18:00,
2017-06-23 02:23:00,40.9,35.2,30.24,North,355,0.0,0.0,80,0.00,,,0.00,0,Wunderground v.1.15,2017-06-23 08:23:00,
2017-06-23 02:28:00,40.9,35.5,30.24,North,355,0.0,0.0,81,0.00,,,0.00,0,Wunderground v.1.15,2017-06-23 08:28:00,
2017-06-23 02:33:00,41.0,35.6,30.24,North,355,0.0,0.0,81,0.00,,,0.00,0,Wunderground v.1.15,2017-06-23 08:33:00,
2017-06-23 02:38:00,41.0,35.6,30.24,North,355,0.0,0.0,81,0.00,,,0.00,0,Wunderground v.1.15,2017-06-23 08:38:00,
2017-06-23 02:43:00,40.9,35.5,30.24,North,355,0.0,0.0,81,0.00,,,0.00,0,Wunderground v.1.15,2017-06-23 08:43:00,
2017-06-23 02:48:00,40.9,35.5,30.24,North,355,0.0,0.0,81,0.00,,,0.00,0,Wunderground v.1.15,2017-06-23 08:48:00,
2017-06-23 02:53:00,40.8,35.4,30.24,North,355,0.0,0.0,81,0.00,,,0.00,0,Wunderground v.1.15,2017-06-23 08:53:00,
2017-06-23 02:58:00,40.7,35.3,30.24,North,355,0.0,0.0,81,0.00,,,0.00,0,Wunderground v.1.15,2017-06-23 08:58:00,
2017-06-23 03:03:00,40.4,35.0,30.24,North,355,0.0,0.0,81,0.00,,,0.00,0,Wunderground v.1.15,2017-06-23 09:03:00,
2017-06-23 03:08:00,40.1,34.4,30.24,North,355,0.0,0.0,80,0.00,,,0.00,0,Wunderground v.1.15,2017-06-23 09:08:00,
2017-06-23 03:13:00,39.8,34.1,30.24,North,355,0.0,0.0,80,0.00,,,0.00,0,Wunderground v.1.15,2017-06-23 09:13:00,
2017-06-23 03:18:00,39.6,33.9,30.25,North,355,0.0,0.0,80,0.00,,,0.00,0,Wunderground v.1.15,2017-06-23 09:18:00,
2017-06-23 03:23:00,39.4,33.7,30.25,North,355,0.0,0.0,80,0.00,,,0.00,0,Wunderground v.1.15,2017-06-23 09:23:00,
2017-06-23 03:28:00,39.4,34.1,30.25,North,355,0.0,0.0,81,0.00,,,0.00,0,Wunderground v.1.15,2017-06-23 09:28:00,
2017-06-23 03:33:00,39.3,34.0,30.25,North,355,0.0,0.0,81,0.00,,,0.00,0,Wunderground v.1.15,2017-06-23 09:33:00,
2017-06-23 03:38:00,39.2,33.9,30.25,North,355,0.0,0.0,81,0.00,,,0.00,0,Wunderground v.1.15,2017-06-23 09:38:00,
2017-06-23 03:43:00,39.1,33.8,30.25,North,355,0.0,0.0,81,0.00,,,0.00,0,Wunderground v.1.15,2017-06-23 09:43:00,
2017-06-23 03:48:00,38.9,33.6,30.25,North,355,0.0,0.0,81,0.00,,,0.00,0,Wunderground v.1.15,2017-06-23 09:48:00,
2017-06-23 03:53:00,38.7,33.7,30.25,North,355,0.0,0.0,82,0.00,,,0.00,0,Wunderground v.1.15,2017-06-23 09:53:00,
2017-06-23 03:58:00,38.6,33.6,30.25,North,355,0.0,0.0,82,0.00,,,0.00,0,Wunderground v.1.15,2017-06-23 09:58:00,
2017-06-23 04:03:00,38.5,33.5,30.25,North,355,0.0,0.0,82,0.00,,,0.00,0,Wunderground v.1.15,2017-06-23 10:03:00,
2017-06-23 04:08:00,38.3,33.3,30.25,North,355,0.0,0.0,82,0.00,,,0.00,0,Wunderground v.1.15,2017-06-23 10:08:00,
2017-06-23 04:13:00,38.1,33.1,30.25,North,355,0.0,0.0,82,0.00,,,0.00,0,Wunderground v.1.15,2017-06-23 10:13:00,
2017-06-23 04:19:00,37.7,32.7,30.26,North,355,0.0,0.0,82,0.00,,,0.00,0,Wunderground v.1.15,2017-06-23 10:19:00,
2017-06-23 04:24:00,37.3,32.3,30.26,North,355,0.0,0.0,82,0.00,,,0.00,0,Wunderground v.1.15,2017-06-23 10:24:00,
2017-06-23 04:29:00,36.9,31.9,30.26,North,355,0.0,0.0,82,0.00,,,0.00,0,Wunderground v.1.15,2017-06-23 10:29:00,
2017-06-23 04:34:00,36.6,31.6,30.26,North,355,0.0,0.0,82,0.00,,,0.00,0,Wunderground v.1.15,2017-06-23 10:34:00,
2017-06-23 04:39:00,36.5,31.5,30.26,North,355,0.0,0.0,82,0.00,,,0.00,0,Wunderground v.1.15,2017-06-23 10:39:00,
2017-06-23 04:44:00,36.5,31.8,30.26,North,355,0.0,0.0,83,0.00,,,0.00,0,Wunderground v.1.15,2017-06-23 10:44:00,